Weather History for Greenville Downtown, SC

Change the Weather History Date:

Thursday, February 16, 2012

  Actual Average Record
Temperature  
Mean Temperature 52 °F -  
Max Temperature 55 °F 53 °F 73 °F (2000)
Min Temperature 48 °F 36 °F 25 °F (2007)
Degree Days  
Heating Degree Days 14    
Growing Degree Days 2 (Base 50)    
Moisture  
Dew Point 47 °F    
Average Humidity 86    
Maximum Humidity 100    
Minimum Humidity 57    
Precipitation  
Precipitation 0.14 in - - ()
Sea Level Pressure  
Sea Level Pressure 30.12 in    
Wind  
Wind Speed 3 mph (West)    
Max Wind Speed 6 mph    
Max Gust Speed -    
Visibility 5 miles    
Events Fog , Rain    
Averages and records for this station are not official NWS values.
T = Trace of Precipitation, MM = Missing Value Source: NWS Daily Summary

Daily Weather History Graph

Daily Weather History Graph

Search for Another Location

Airport:

Trip Planner

Search our weather history database for the weather conditions in past years. The results will help you decide how hot, cold, wet, or windy it might be!

Date:

Astronomy

Feb. 16, 2012 Rise Set
Actual Time 7:14 AM EST 6:12 PM EST
Civil Twilight 6:48 AM EST 6:38 PM EST
Nautical Twilight 6:19 AM EST 7:08 PM EST
Astronomical Twilight 5:49 AM EST 7:37 PM EST
Moon 3:01 AM EST (2/16) 1:11 PM EST (2/16)
Length of Visible Light 11h 49m
Length of Day
10h 58m
Waning Crescent, 28% of the Moon is Illuminated
Feb 16
Waning Crescent
Feb 21
New
Feb 29
First Quarter
Mar 8
Full
Mar 14
Last Quarter

Hourly Weather History & Observations

Time (EST) Temp. Dew Point Humidity Pressure Visibility Wind Dir Wind Speed Gust Speed Precip Events Conditions
12:53 AM 53.1 °F 37.9 °F 57% 30.20 in 10.0 mi NE 4.6 mph - N/A   Mostly Cloudy
1:53 AM 50.0 °F 35.1 °F 57% 30.22 in 10.0 mi NNE 4.6 mph - N/A   Partly Cloudy
2:53 AM 52.0 °F 37.9 °F 59% 30.21 in 10.0 mi ESE 3.5 mph - N/A   Overcast
3:53 AM 52.0 °F 37.9 °F 59% 30.22 in 10.0 mi Calm Calm - N/A   Overcast
4:53 AM 50.0 °F 39.0 °F 66% 30.21 in 10.0 mi North 3.5 mph - N/A   Overcast
5:00 AM 50.0 °F 37.4 °F 62% 30.20 in 10.0 mi NNE 5.8 mph - N/A   Overcast
5:07 AM 50.0 °F 37.4 °F 62% 30.21 in 10.0 mi North 3.5 mph - N/A   Overcast
5:44 AM 50.0 °F 37.4 °F 62% 30.20 in 10.0 mi Calm Calm - N/A   Overcast
5:53 AM 51.1 °F 37.0 °F 59% 30.20 in 10.0 mi Calm Calm - N/A   Overcast
6:33 AM 50.0 °F 39.2 °F 66% 30.20 in 10.0 mi SSE 3.5 mph - N/A   Overcast
6:49 AM 50.0 °F 39.2 °F 66% 30.20 in 10.0 mi Calm Calm - N/A   Overcast
6:53 AM 50.0 °F 39.0 °F 66% 30.19 in 10.0 mi Calm Calm - N/A   Overcast
7:17 AM 50.0 °F 39.2 °F 66% 30.19 in 10.0 mi Calm Calm - 0.00 in Rain Light Rain
7:53 AM 50.0 °F 42.1 °F 74% 30.17 in 10.0 mi East 3.5 mph - 0.00 in   Overcast
8:53 AM 48.9 °F 44.1 °F 83% 30.16 in 10.0 mi SE 5.8 mph - 0.00 in   Overcast
9:53 AM 48.9 °F 46.0 °F 90% 30.15 in 5.0 mi SSE 4.6 mph - 0.01 in Rain Light Rain
10:10 AM 48.2 °F 46.4 °F 93% 30.15 in 5.0 mi Calm Calm - N/A   Overcast
10:35 AM 50.0 °F 48.2 °F 94% 30.14 in 1.8 mi Calm Calm - 0.00 in Rain Light Rain
10:53 AM 50.0 °F 48.0 °F 93% 30.15 in 0.8 mi Calm Calm - 0.01 in Rain Rain
11:00 AM 50.0 °F 48.2 °F 94% 30.15 in 1.2 mi Calm Calm - 0.01 in Rain Light Rain
11:53 AM 50.0 °F 48.9 °F 96% 30.13 in 1.0 mi Calm Calm - 0.06 in Rain Rain
12:53 PM 50.0 °F 48.9 °F 96% 30.09 in 1.8 mi Calm Calm - 0.04 in Rain Light Rain
1:08 PM 51.8 °F 48.2 °F 88% 30.09 in 2.0 mi North 3.5 mph - 0.01 in Rain Light Rain
1:53 PM 51.1 °F 50.0 °F 96% 30.07 in 1.5 mi Calm Calm - 0.01 in Rain Light Rain
2:00 PM 51.8 °F 51.8 °F 100% 30.06 in 1.8 mi Calm Calm - 0.01 in Rain Light Rain
2:07 PM 51.8 °F 51.8 °F 100% 30.06 in 2.5 mi Calm Calm - 0.01 in Rain Light Rain
2:15 PM 51.8 °F 51.8 °F 100% 30.06 in 4.0 mi SW 3.5 mph - 0.01 in   Overcast
2:26 PM 51.8 °F 51.8 °F 100% 30.05 in 4.0 mi Calm Calm - 0.01 in   Overcast
2:53 PM 53.1 °F 51.1 °F 93% 30.04 in 6.0 mi SSW 3.5 mph - 0.01 in   Overcast
3:53 PM 55.0 °F 52.0 °F 89% 30.03 in 8.0 mi Calm Calm - N/A   Overcast
4:53 PM 55.0 °F 52.0 °F 89% 30.02 in 10.0 mi SW 3.5 mph - N/A   Overcast
6:43 PM 53.6 °F 51.8 °F 94% 30.05 in 10.0 mi WSW 3.5 mph - N/A   Mostly Cloudy
6:53 PM 54.0 °F 51.1 °F 90% 30.05 in 10.0 mi WSW 3.5 mph - N/A   Overcast
7:53 PM 52.0 °F 51.1 °F 97% 30.07 in 6.0 mi Calm Calm - N/A   Clear
8:53 PM 52.0 °F 51.1 °F 97% 30.07 in 4.0 mi Calm Calm - N/A   Partly Cloudy
9:05 PM 51.8 °F 51.8 °F 100% 30.08 in 3.0 mi WSW 5.8 mph - N/A   Mostly Cloudy
9:08 PM 51.8 °F 51.8 °F 100% 30.08 in 1.8 mi West 4.6 mph - N/A   Mostly Cloudy
9:22 PM 51.8 °F 51.8 °F 100% 30.08 in 0.5 mi West 5.8 mph - N/A Fog Fog
9:53 PM 52.0 °F 52.0 °F 100% 30.08 in 0.5 mi West 5.8 mph - N/A Fog Fog
10:07 PM 51.8 °F 51.8 °F 100% 30.07 in 0.2 mi WNW 5.8 mph - N/A Fog Fog
10:18 PM 51.8 °F 51.8 °F 100% 30.08 in 0.2 mi West 4.6 mph - N/A Fog Fog
10:53 PM 52.0 °F 52.0 °F 100% 30.09 in 0.2 mi West 5.8 mph - N/A Fog Fog
11:00 PM 51.8 °F 51.8 °F 100% 30.08 in 0.5 mi WNW 4.6 mph - N/A Fog Fog
11:22 PM 51.8 °F 51.8 °F 100% 30.07 in 1.2 mi WNW 5.8 mph - N/A   Overcast
11:44 PM 51.8 °F 51.8 °F 100% 30.07 in 3.0 mi West 5.8 mph - N/A   Overcast
11:53 PM 51.1 °F 51.1 °F 100% 30.07 in 2.5 mi West 4.6 mph - N/A   Overcast